Regional Weather Roundup
Issued by NWS

Home | Current Version | Previous Version | Graphics & Text | Print | Product List | Glossary On
Versions: 1 2 3 4 5 6 7 8 9 10 11 12 13 14 15 16 17 18 19 20 21 22 23 24 25 26 27
000
ASUS45 KSLC 281310
RWRUT

UTAH REGIONAL WEATHER ROUNDUP
NATIONAL WEATHER SERVICE SALT LAKE CITY UT
700 AM MDT WED SEP 28 2016

UTZ001>011-023>025-281400-

NORTHERN UTAH

CITY           SKY/WX    TMP DP  RH WIND       PRES   REMARKS
BRIGHAM CITY     N/A     47  44  91 CALM      30.17S
HILL AFB       CLEAR     55  42  62 E15       30.18R
LOGAN          CLEAR     46  43  89 CALM      30.20R
OGDEN          CLEAR     54  44  69 SW5       30.17R
PROVO AIRPORT  CLEAR     48  42  80 S5        30.20S
SALT LAKE CITY CLEAR     55  47  74 SE6       30.16R
VERNAL         CLEAR     44  40  85 SW3       30.28R
WENDOVER       PTCLDY    52  43  71 NE7       30.17R
HEBER CITY     CLEAR     37  36  93 CALM      30.27S
WEST JORDAN    CLEAR     56  47  71 S6        30.18S

$$

UTZ012>022-026-027-281400-

SOUTHERN/CENTRAL UTAH

CITY           SKY/WX    TMP DP  RH WIND       PRES   REMARKS
BLANDING       CLEAR     51  33  51 CALM      30.34R
BRYCE CANYON   MOCLDY    40  35  83 W3        30.36S
CEDAR CITY     CLOUDY    48  37  65 CALM      30.21S
DELTA          CLEAR     46  41  81 SE7       30.19R
MILFORD        CLEAR     45  35  68 SW3       30.20S
MOAB/CYNLANDS  CLEAR     50  38  63 W5        30.19R
PRICE          CLEAR     48  37  65 NW5       30.27R
ST GEORGE      MOSUNNY   64  41  42 CALM      30.11R

$$

REGIONAL REPORTS     COLORADO/ARIZONA

CITY           SKY/WX    TMP DP  RH WIND       PRES   REMARKS
CRAIG, CO      CLOUDY    33  30  88 SW6       30.34R WCI  28
GRAND JUNCTION CLEAR     52  38  58 SE7       30.23R
RIFLE          CLOUDY    45  38  76 CALM      30.30R
MONTROSE       CLOUDY    44  36  73 S7        30.32R
CORTEZ         CLEAR     40  35  83 CALM      30.30R
PAGE, AZ       MOCLDY    61  42  49 CALM      30.16R
GRAND CANYON   PTCLDY    44  39  82 NE3       30.28S
KINGMAN        MOCLDY    66  44  45 VRB6      30.07F
FLAGSTAFF      PTCLDY    40  40 100 CALM      30.30R

$$

REGIONAL REPORTS    NEVADA/IDAHO/WYOMING

CITY           SKY/WX    TMP DP  RH WIND       PRES   REMARKS
LAS VEGAS, NV  MOCLDY    73  49  42 N5        30.03R
ELY            CLEAR     42  29  59 S13       30.26R
ELKO           CLEAR     44  37  76 NE5       30.18R
POCATELLO, ID  CLOUDY    41  39  93 N3        30.19R
BURLEY         CLEAR     46  43  89 N5        30.13R
EVANSTON, WY   CLOUDY    48  35  60 E8        30.34R
ROCK SPRINGS   CLOUDY    44  36  73 E5        30.36R

$$




USA.gov is the U.S. government's official web portal to all federal, state and local government web resources and services.